Weather History for KNIP - August, 2013

Change the Weather History Date:

Friday, August 30, 2013

  Actual Average (KJAX) Record (KJAX)
Temperature  
Mean Temperature 84 °F 81 °F  
Max Temperature 93 °F 90 °F 98 °F (1897)
Min Temperature 75 °F 72 °F 64 °F (1896)
Degree Days  
Heating Degree Days 0 0  
Month to date heating degree days 0  
Since 1 June heating degree days 0  
Since 1 July heating degree days 0  
Cooling Degree Days 19 16  
Month to date cooling degree days 503  
Year to date cooling degree days 1972  
Since 1 June cooling degree days 1488  
Growing Degree Days 34 (Base 50)    
Moisture  
Dew Point 71 °F    
Average Humidity 69    
Maximum Humidity 91    
Minimum Humidity 42    
Precipitation  
Precipitation 0.00 in 0.25 in 3.88 in (1968)
Month to date precipitation 6.54  
Year to date precipitation 35.10  
Snow  
Snow 0.00 in 0.00 in 0.00 in (2002)
Month to date snowfall 0.0  
Since 1 June snowfall 0.0  
Since 1 July snowfall 0.0  
Snow Depth -    
Sea Level Pressure  
Sea Level Pressure 29.93 in    
Wind  
Wind Speed 7 mph (South)    
Max Wind Speed 13 mph    
Max Gust Speed -    
Visibility 9 miles    
Events Thunderstorm    
T = Trace of Precipitation, MM = Missing Value Source: NWS Daily Summary

Daily Weather History Graph

Daily Weather History Graph

Search for Another Location

Airport or City:

Trip Planner

Search our weather history database for the weather conditions in past years. The results will help you decide how hot, cold, wet, or windy it might be!

Date:

Astronomy

Aug. 30, 2013 Rise Set
Actual Time 7:02 AM EDT 7:51 PM EDT
Civil Twilight 6:38 AM EDT 8:15 PM EDT
Nautical Twilight 6:09 AM EDT 8:44 PM EDT
Astronomical Twilight 5:39 AM EDT 9:14 PM EDT
Moon 1:52 AM EDT (8/30) 3:53 PM EDT (8/30)
Length of Visible Light 13h 37m
Length of Day
12h 48m
Waning Crescent, 29% of the Moon is Illuminated
Aug 30
Waning Crescent
Sep 5
New
Sep 12
First Quarter
Sep 19
Full
Sep 26
Last Quarter

Hourly Weather History & Observations

Time (EDT) Temp. Heat Index Dew Point Humidity Pressure Visibility Wind Dir Wind Speed Gust Speed Precip Events Conditions
12:53 AM 82.0 °F 87.9 °F 73.9 °F 76% 29.95 in 10.0 mi South 8.1 mph - N/A   Scattered Clouds
1:53 AM 80.1 °F 83.8 °F 72.0 °F 76% 29.94 in 10.0 mi SSW 5.8 mph - N/A   Scattered Clouds
2:53 AM 80.1 °F 83.6 °F 71.1 °F 74% 29.94 in 10.0 mi SW 4.6 mph - N/A   Scattered Clouds
3:53 AM 79.0 °F - 72.0 °F 79% 29.93 in 10.0 mi SW 8.1 mph - N/A   Mostly Cloudy
4:53 AM 75.9 °F - 72.0 °F 87% 29.92 in 10.0 mi WSW 9.2 mph - N/A   Mostly Cloudy
5:53 AM 75.9 °F - 73.0 °F 91% 29.92 in 9.0 mi WSW 8.1 mph - N/A   Scattered Clouds
6:53 AM 75.9 °F - 73.0 °F 91% 29.93 in 7.0 mi WSW 8.1 mph - N/A   Partly Cloudy
7:53 AM 75.9 °F - 73.0 °F 91% 29.96 in 7.0 mi Calm Calm - N/A   Scattered Clouds
8:53 AM 80.1 °F 84.2 °F 73.0 °F 79% 29.97 in 8.0 mi West 5.8 mph - N/A   Partly Cloudy
9:53 AM 82.9 °F 88.8 °F 73.0 °F 72% 29.97 in 8.0 mi Variable 3.5 mph - N/A   Partly Cloudy
10:53 AM 87.1 °F 94.5 °F 73.0 °F 63% 29.97 in 8.0 mi Variable 4.6 mph - N/A   Scattered Clouds
11:53 AM 88.0 °F 95.6 °F 73.0 °F 61% 29.97 in 8.0 mi South 8.1 mph - N/A   Mostly Cloudy
12:53 PM 91.0 °F 98.2 °F 72.0 °F 53% 29.96 in 8.0 mi SSE 8.1 mph - N/A   Mostly Cloudy
1:53 PM 91.0 °F 96.6 °F 70.0 °F 50% 29.94 in 9.0 mi SW 6.9 mph - N/A   Scattered Clouds
2:53 PM 93.0 °F 96.4 °F 66.9 °F 42% 29.91 in 10.0 mi SSE 10.4 mph - N/A   Scattered Clouds
3:53 PM 91.9 °F 95.4 °F 66.9 °F 44% 29.88 in 10.0 mi SSE 11.5 mph - N/A   Mostly Cloudy
4:53 PM 93.0 °F 96.4 °F 66.9 °F 42% 29.86 in 10.0 mi SSE 9.2 mph - N/A   Mostly Cloudy
5:31 PM 91.0 °F 96.6 °F 70.0 °F 50% 29.88 in 8.0 mi ESE 8.1 mph - N/A Thunderstorm Thunderstorm
5:53 PM 90.0 °F 97.9 °F 73.0 °F 57% 29.88 in 7.0 mi East 5.8 mph - N/A Thunderstorm Thunderstorm
6:49 PM 82.4 °F 86.3 °F 69.8 °F 66% 29.91 in 8.0 mi NE 12.7 mph - N/A   Mostly Cloudy
6:53 PM 82.0 °F 85.9 °F 70.0 °F 67% 29.90 in 8.0 mi NE 11.5 mph - N/A   Mostly Cloudy
7:53 PM 82.9 °F 87.5 °F 71.1 °F 67% 29.91 in 8.0 mi NNE 4.6 mph - N/A   Mostly Cloudy
8:53 PM 82.0 °F 86.7 °F 72.0 °F 71% 29.93 in 10.0 mi ENE 6.9 mph - N/A   Mostly Cloudy
9:53 PM 82.0 °F 87.9 °F 73.9 °F 76% 29.95 in 10.0 mi Calm Calm - N/A   Mostly Cloudy
10:53 PM 78.1 °F - 72.0 °F 81% 29.95 in 10.0 mi WNW 8.1 mph - N/A   Mostly Cloudy
11:53 PM 78.1 °F - 71.1 °F 79% 29.92 in 10.0 mi Calm Calm - N/A   Mostly Cloudy